Starlink 3344

operational
NORAD ID: 51110 Int'l Des: 2022-005 Owner: SPXS Country: US Constellation: starlink
LEOCIRCULAR

About Starlink 3344

Description loading...

Live Position

Loading 3D Globe...

Upcoming Passes

Altitude History

Altitude vs Time

uPlot chart will show altitude changes over time

Two-Line Element Set

1 51110U 22005G 26035.84397203 .00000731 00000-0 64027-4 0 9993
2 51110 53.2152 76.5506 0001595 87.9168 272.2006 15.08844406223923
Epoch: Feb 4, 2026 • Age: 16 hours

Current Status

Altitude 552.6 km
Velocity 7.58 km/s
Sub-Earth Point -37.25°S, 84.48°E
Launch Date Jan 19, 2022
Age 4 years
Type internet

Technical Details

Classification Payload
Mass 297.00 kg
Dry Mass 275.00 kg
Total Mass 297.00 kg
Length 0.20 m
Diameter 2.80 m
Span 9.00 m
Shape Box + pan
Manufacturer SPXS
Bus Type Starlink
Phase Status In Orbit
Owner/State SPXS/US

Large Constellations

Loading constellations...